Weather Roundup
Issued by NWS

Home | Current Version | Previous Version | Text Only | Print | Product List | Glossary On
Versions: 1 2 3 4 5 6 7 8 9 10 11 12 13 14 15 16 17 18 19 20 21 22 23 24 25 26 27 28 29 30 31 32 33 34 35 36 37 38 39 40 41 42 43 44 45 46 47 48 49 50
000
NZUS93 KARX 211410
HRRWXR

CURRENT HOURLY OBSERVATIONS ACROSS
MUCH OF THE UPPER MISSISSIPPI VALLEY
NATIONAL WEATHER SERVICE LA CROSSE WI
900 AM CDT SUN SEP 21 2014


...SOUTHEAST MINNESOTA...


CITY           SKY/WX    TMP DP  RH WIND       PRES   REMARKS
ROCHESTER      CLOUDY    53  48  83 N17G29    30.03R
ROCHESTER/MAYO CLOUDY    53  48  84 NW15G26   30.02R
WINONA         CLOUDY    55  52  88 NW12G21   29.98R
AUSTIN         CLOUDY    52  48  87 NW17G25   30.05R
ALBERT LEA     PTSUNNY   54  50  87 NW13G23   30.06R
DODGE CENTER   CLOUDY    54  48  82 N15       30.04R
PRESTON        CLOUDY    52  51  96 NW18G28   30.01R
OWATONNA       PTSUNNY   54  48  82 NW16      30.07R
FARIBAULT      PTSUNNY   55  46  71 NW14G20   30.07R
$$

...ELSEWHERE IN MINNESOTA...


CITY           SKY/WX    TMP DP  RH WIND       PRES   REMARKS
MINNEAPOLIS    MOSUNNY   56  48  74 NW15      30.06R
INTNL FALLS    MOSUNNY   52  48  86 N9        30.09R
DULUTH         MOSUNNY   52  47  83 NW8       30.04R
RED WING       CLOUDY    55  50  82 N8        30.03R
REDWOOD FALLS  MOSUNNY   54  50  86 NW8G18    30.14R
MANKATO        SUNNY     54  46  76 NW15G22   30.09R
WORTHINGTON    SUNNY     55  46  71 NW16G22   30.17R
FAIRMONT       MOSUNNY   55  45  67 NW14G20   30.11R
$$

...SOUTHWEST WISCONSIN...


CITY           SKY/WX    TMP DP  RH WIND       PRES   REMARKS
LA CROSSE      CLOUDY    57  50  77 NW13      29.94R
PRAIRIE DU CHI CLOUDY    56  48  72 NW10G21   29.95R
BOSCOBEL       CLOUDY    57  49  74 VRB5      29.93R
LONE ROCK      CLOUDY    60  49  66 NW13      29.91R
PLATTEVILLE    CLOUDY    55  52  88 NW15G24   29.93R
FORT MC COY    CLOUDY    55  49  79 NW9G23    29.93R
CAMP DOUGLAS   CLOUDY    54  54 100 NW13      29.91R
VIROQUA        CLOUDY    54  49  86 NW14      29.93R
WIS DELLS      CLOUDY    55  49  81 NW10G20   29.88R
$$

...ELSEWHERE IN WISCONSIN...


CITY           SKY/WX    TMP DP  RH WIND       PRES   REMARKS
MILWAUKEE      DRIZZLE   56  51  84 W13G26    29.79R
MADISON        CLOUDY    56  49  77 NW10G22   29.86R
GREEN BAY      LGT RAIN  56  53  90 N12       29.80R
EAU CLAIRE     PTSUNNY   56  50  80 N13G22    29.98R
BLACK RVR FLS  CLOUDY    56  51  84 NW8       29.93R
MEDFORD        PTSUNNY   51  48  89 N16G22    29.93R
WAUSAU         CLOUDY    54  51  90 N14G21    29.87R
WIS RAPIDS     CLOUDY    56  53  90 NW9       29.89R
MARSHFIELD     LGT RAIN  56  53  90 N16G23    29.91R FOG
RICE LAKE      SUNNY     52  48  84 N8        30.03R
$$

...NORTHEAST IOWA...


CITY           SKY/WX    TMP DP  RH WIND       PRES   REMARKS
WATERLOO       PTSUNNY   55  49  80 NW20      30.02R
DUBUQUE        CLOUDY    54  50  86 NW16G28   29.95R
DECORAH        CLOUDY    54  48  82 NW17      29.97R
MASON CITY     PTSUNNY   54  50  86 N17G25    30.08R
CHARLES CITY   CLOUDY    54  48  82 NW15      30.04R
OELWEIN        CLOUDY    54  50  87 NW18      30.01R
$$

...ELSEWHERE IN IOWA...


CITY           SKY/WX    TMP DP  RH WIND       PRES   REMARKS
DES MOINES     SUNNY     60  48  64 NW15      30.10R
IOWA CITY        N/A     59  50  72 NW21G26   30.00R
FORT DODGE     SUNNY     57  46  67 N12G20    30.11R
MARSHALLTOWN   SUNNY     58  49  72 NW21      30.05R
CEDAR RAPIDS   SUNNY     57  50  77 NW20      30.00R
$$

...NORTHERN ILLINOIS...


CITY           SKY/WX    TMP DP  RH WIND       PRES   REMARKS
CHICAGO-OHARE  PTSUNNY   60  50  69 NW16G24   29.82R
DUPAGE         PTSUNNY   59  51  75 W17       29.84R
CHICAGO-MIDWAY PTSUNNY   62  52  69 W18G26    29.83R
MOLINE         SUNNY     61  50  67 NW17G32   29.95R
ROCKFORD       PTSUNNY   58  51  78 NW17G23   29.89R
STERLING       MOSUNNY   61  52  72 NW17G25   29.91R
PEORIA         SUNNY     63  52  67 W14G22    29.95R
$$

NOTE: "FAIR" INDICATES FEW OR NO CLOUDS BELOW 12,000 FEET WITH NO
SIGNIFICANT WEATHER AND/OR OBSTRUCTIONS TO VISIBILITY. WIND
SPEEDS ARE IN MILES-PER-HOUR.



USA.gov is the U.S. government's official web portal to all federal, state and local government web resources and services.